TimeEDT,TemperatureF,Dew PointF,Humidity,Sea Level PressureIn,VisibilityMPH,Wind Direction,Wind SpeedMPH,Gust SpeedMPH,PrecipitationIn,Events,Conditions,WindDirDegrees,DateUTC
12:53 AM,48.9,46.0,90,30.11,10.0,Calm,Calm,-,N/A,,Clear,0,2012-09-29 04:53:00
1:53 AM,46.0,45.0,96,30.10,10.0,Calm,Calm,-,N/A,,Partly Cloudy,0,2012-09-29 05:53:00
2:05 AM,46.4,44.6,93,30.10,2.5,Calm,Calm,-,N/A,,Mostly Cloudy,0,2012-09-29 06:05:00
2:13 AM,48.2,46.4,93,30.10,8.0,Calm,Calm,-,N/A,,Mostly Cloudy,0,2012-09-29 06:13:00
2:53 AM,46.9,45.0,93,30.10,10.0,Calm,Calm,-,N/A,,Partly Cloudy,0,2012-09-29 06:53:00
3:46 AM,44.6,44.6,100,30.09,2.5,Calm,Calm,-,N/A,,Clear,0,2012-09-29 07:46:00
3:53 AM,45.0,43.0,93,30.10,7.0,Calm,Calm,-,N/A,,Clear,0,2012-09-29 07:53:00
4:10 AM,46.4,44.6,93,30.09,2.5,Calm,Calm,-,N/A,,Clear,0,2012-09-29 08:10:00
4:17 AM,46.4,44.6,93,30.09,6.0,Calm,Calm,-,N/A,,Clear,0,2012-09-29 08:17:00
4:53 AM,45.0,43.0,93,30.10,2.5,Calm,Calm,-,N/A,,Clear,0,2012-09-29 08:53:00
5:01 AM,44.6,42.8,93,30.09,3.0,Calm,Calm,-,N/A,,Clear,0,2012-09-29 09:01:00
5:53 AM,44.1,43.0,96,30.09,4.0,Calm,Calm,-,N/A,,Clear,0,2012-09-29 09:53:00
5:56 AM,42.8,42.8,100,30.09,2.0,Calm,Calm,-,N/A,,Clear,0,2012-09-29 09:56:00
6:10 AM,42.8,41.0,93,30.09,6.0,Calm,Calm,-,N/A,,Clear,0,2012-09-29 10:10:00
6:53 AM,44.1,42.1,93,30.09,4.0,Calm,Calm,-,N/A,,Clear,0,2012-09-29 10:53:00
7:04 AM,42.8,42.8,100,30.08,2.0,Calm,Calm,-,N/A,,Clear,0,2012-09-29 11:04:00
7:12 AM,42.8,42.8,100,30.08,3.0,Calm,Calm,-,N/A,,Clear,0,2012-09-29 11:12:00
7:53 AM,44.1,42.1,93,30.09,3.0,Calm,Calm,-,N/A,,Clear,0,2012-09-29 11:53:00
7:59 AM,44.6,42.8,93,30.08,2.0,Calm,Calm,-,N/A,,Clear,0,2012-09-29 11:59:00
8:06 AM,44.6,42.8,93,30.09,1.2,Calm,Calm,-,N/A,,Clear,0,2012-09-29 12:06:00
8:18 AM,46.4,44.6,93,30.08,2.5,Calm,Calm,-,N/A,,Clear,0,2012-09-29 12:18:00
8:34 AM,48.2,46.4,93,30.09,3.0,Calm,Calm,-,N/A,,Clear,0,2012-09-29 12:34:00
8:53 AM,48.9,46.9,93,30.10,4.0,Calm,Calm,-,N/A,,Clear,0,2012-09-29 12:53:00
9:53 AM,53.1,48.9,86,30.10,9.0,NW,4.6,-,N/A,,Clear,310,2012-09-29 13:53:00
10:53 AM,60.1,50.0,69,30.10,10.0,NW,5.8,-,N/A,,Clear,310,2012-09-29 14:53:00
11:53 AM,64.0,44.1,48,30.08,10.0,Variable,5.8,-,N/A,,Clear,0,2012-09-29 15:53:00
12:53 PM,66.0,42.1,42,30.05,10.0,NNW,5.8,-,N/A,,Clear,340,2012-09-29 16:53:00
1:53 PM,69.1,41.0,36,30.02,10.0,Variable,4.6,-,N/A,,Clear,0,2012-09-29 17:53:00
2:53 PM,71.1,43.0,36,29.99,10.0,Variable,6.9,-,N/A,,Clear,0,2012-09-29 18:53:00
3:53 PM,72.0,42.1,34,29.98,10.0,NW,9.2,-,N/A,,Clear,310,2012-09-29 19:53:00
4:53 PM,71.1,41.0,34,29.96,10.0,Variable,6.9,-,N/A,,Scattered Clouds,0,2012-09-29 20:53:00
5:53 PM,70.0,39.9,33,29.95,10.0,NNW,10.4,-,N/A,,Clear,340,2012-09-29 21:53:00
6:53 PM,68.0,42.1,39,29.95,10.0,Calm,Calm,-,N/A,,Clear,0,2012-09-29 22:53:00
7:53 PM,59.0,46.0,62,29.95,10.0,Calm,Calm,-,N/A,,Clear,0,2012-09-29 23:53:00
8:53 PM,54.0,45.0,72,29.95,10.0,Calm,Calm,-,N/A,,Clear,0,2012-09-30 00:53:00
9:53 PM,53.1,46.0,77,29.95,10.0,Calm,Calm,-,N/A,,Clear,0,2012-09-30 01:53:00
10:53 PM,52.0,45.0,77,29.94,10.0,Calm,Calm,-,N/A,,Mostly Cloudy,0,2012-09-30 02:53:00
11:53 PM,57.0,44.1,62,29.93,10.0,Calm,Calm,-,N/A,,Scattered Clouds,0,2012-09-30 03:53:00